Location: Melizzano
(41.1500°N, 14.5000°E)
Time: 04:51:01
(UTC+00:00)

Cosmos 1743 - Pass Details

Date: 11 May 2021
Orbit: 511 x 525 km, 82.6° (Epoch: 14 June)

Event Time Altitude Azimuth Distance (km) Brightness Sun altitude
Rises 21:10:17 0° 358° (N) 2,649 7.3 -25.7°
Reaches altitude 10° 21:12:29 10° 4° (N) 1,759 6.1 -25.9°
Enters shadow 21:14:51 32° 27° (NNE) 921 4.2 -26.1°
